#timestamp,LO_Frequency,Hit,StdDev 
1562446815.4,286047001.0,N
1562446835.2,286047000.1,N
1562446855.1,286047000.5,N
1562446856.0,286047000.5,N
1562446875.8,286047000.5,N
1562446895.6,286046998.1,Y
1562446915.5,286046996.9,P
1562446935.3,286046996.6,N
1562446955.1,286046999.4,N
1562446975.9,286046997.1,N
1562446995.7,286046997.2,N
1562447015.6,286046997.8,N
1562447035.4,286046997.6,N
1562447055.0,286046997.2,N
1562447055.9,286046997.2,N
1562447075.8,286046997.2,N
1562447095.6,286046996.6,N
1562447115.4,286046996.5,N
1562447135.3,286046999.6,N
1562447155.1,286046997.2,N
1562447175.9,286046997.0,N
1562447195.7,286046997.1,N
1562447215.5,286046999.3,N
1562447235.4,286046997.2,N
1562447255.2,286046996.8,N
1562447275.0,286046997.0,N
1562447276.0,286046997.0,N
1562447295.8,286046997.3,N
1562447315.6,286046996.7,Y
1562447335.5,286047000.4,P
1562447355.3,286047000.7,N
1562447375.1,286047000.8,N
1562447395.8,286047000.6,N
1562447415.6,286046999.8,N
1562447435.5,286047000.5,N
1562447455.3,286047000.3,N
1562447475.1,286047001.0,N
1562447495.9,286047000.2,N
1562447515.7,286047002.8,N
1562447535.6,286047000.6,N
1562447555.4,286047000.0,N
1562447575.2,286047000.1,N
1562447595.1,286047000.3,N
1562447596.0,286047000.3,N
1562447615.8,286047001.2,N
1562447635.7,286046998.2,N
1562447655.5,286046998.4,N
1562447675.3,286047000.9,N
1562447695.2,286047000.7,N
1562447715.9,286046998.3,N
1562447735.7,286046999.2,N
1562447755.6,286046999.0,N
1562447775.4,286046996.9,N
1562447795.3,286046997.1,N
1562447815.1,286046997.9,N
1562447816.0,286046997.9,N
1562447835.8,286047011.9,Y
1562447855.7,286046999.1,P
1562447875.5,286046999.4,N
1562447895.4,286046998.8,P
1562447915.2,286046999.5,N
1562447935.0,286046999.5,N
1562447935.9,286046999.5,N
1562447955.8,286046998.3,Y
1562447975.6,286046998.5,P
1562447995.4,286047001.1,N
1562448015.3,286046999.8,N
1562448035.1,286047002.3,N
1562448055.9,286047002.1,N
1562448075.7,286047001.7,N
1562448095.5,286047001.7,N
1562448115.4,286047001.4,N
1562448135.2,286047003.7,N
1562448155.1,286047004.2,N
1562448156.0,286047004.2,N
1562448175.8,286047003.2,N
1562448195.6,286047004.3,N
1562448215.5,286047003.8,N
1562448235.3,286047004.0,N
1562448255.1,286047004.1,N
1562448275.9,286047003.6,N
1562448295.7,286047004.0,N
1562448315.6,286047003.2,N
1562448335.4,286047003.8,N
1562448355.2,286047003.6,N
1562448375.1,286047003.8,N
1562448376.0,286047003.8,N
1562448395.8,286047003.5,N
1562448415.6,286047003.5,N
1562448435.5,286047003.9,N
1562448455.3,286047001.3,N
1562448475.2,286047003.9,N
1562448495.9,286047003.6,N
1562448515.7,286047004.1,N
1562448535.6,286047003.8,N
1562448555.4,286047004.0,Y
1562448575.3,286047001.0,P
1562448595.1,286047000.6,N
1562448615.8,286047000.9,N
1562448635.7,286047000.6,N
1562448655.5,286046999.9,N
1562448675.4,286047000.4,N
1562448695.2,286046999.7,N
1562448715.0,286047000.2,N
1562448715.9,286047000.2,N
1562448735.8,286047000.1,N
1562448755.6,286046999.8,N
1562448775.4,286046999.8,N
1562448795.3,286046999.8,N
1562448815.1,286046999.7,N
1562448835.9,286047000.2,N
1562448855.7,286047000.1,N
1562448875.5,286047002.5,Y
1562448895.4,286047000.4,P
1562448915.2,286046999.9,P
1562448935.0,286047002.8,P
1562448936.0,286047002.8,N
1562448955.8,286047000.2,N
1562448975.6,286046999.9,N
1562448995.5,286046999.9,N
1562449015.3,286047002.1,N
1562449035.1,286047002.1,N
1562449055.9,286047002.2,N
1562449075.7,286046999.8,N
1562449095.6,286047002.6,N
1562449115.4,286047002.0,N
1562449135.2,286047004.0,Y
1562449155.1,286047004.4,P
1562449156.0,286047004.4,N
1562449175.8,286047002.0,N
1562449195.6,286047001.8,N
1562449215.5,286047001.5,N
1562449235.3,286047003.4,N
1562449255.2,286047003.9,Y
1562449275.9,286047001.1,P
1562449295.7,286047000.8,N
1562449315.6,286047000.8,N
1562449335.4,286047001.2,N
1562449355.3,286047000.9,N
1562449375.1,286047000.3,N
1562449376.0,286047000.3,N
1562449395.8,286047002.3,Y
1562449415.7,286047000.5,P
1562449435.5,286047000.6,N
1562449455.3,286046999.9,N
1562449475.2,286047000.8,N
1562449495.0,286047000.0,N
1562449495.9,286047000.0,N
1562449515.8,286047000.3,N
1562449535.6,286047002.3,Y
1562449555.4,286047000.5,P
1562449575.3,286047002.7,P
1562449595.1,286047002.4,N
1562449615.9,286047000.4,N
1562449635.7,286046999.7,N
1562449655.5,286047002.1,N
1562449675.4,286047002.7,N
1562449695.2,286047001.4,N
1562449715.0,286047002.1,N
1562449715.9,286047002.1,N
1562449735.8,286047004.3,Y
1562449755.6,286047000.1,P
1562449775.5,286046999.8,N
1562449795.3,286047000.1,N
1562449815.1,286047000.3,N
1562449835.9,286047002.6,Y
1562449855.7,286047002.5,P
1562449875.6,286047004.4,P
1562449895.4,286047001.6,N
1562449915.2,286047002.2,N
1562449935.1,286047001.8,N
1562449936.0,286047001.8,N
1562449955.8,286047004.0,Y
1562449975.7,286046998.5,P
1562449995.5,286047000.6,N
1562450015.3,286047000.5,N
1562450035.2,286046998.3,N
1562450055.0,286046998.3,N
1562450055.9,286046998.3,N
1562450075.8,286046998.1,N
1562450095.6,286047001.2,N
1562450115.4,286046998.8,N
1562450135.3,286046998.1,N
1562450155.1,286046998.9,N
1562450175.8,286046998.3,N
1562450195.7,286047000.5,N
1562450215.5,286047000.4,N
1562450235.4,286047002.7,N
1562450255.2,286047002.5,N
1562450275.0,286047000.1,N
1562450275.9,286047000.1,N
1562450295.8,286047002.0,N
1562450315.6,286047001.9,N
1562450335.4,286047001.6,N
1562450355.3,286047001.4,N
1562450375.1,286047003.7,N
1562450395.9,286047007.3,Y
